Regional Weather Roundup
Issued by NWS

Home | Current Version | Previous Version | Text Only | Print | Product List | Glossary Off
Versions: 1 2 3 4 5 6 7 8 9 10 11 12 13 14 15 16 17 18 19 20 21 22 23 24 25 26 27 28 29 30 31 32 33 34 35 36 37 38 39 40 41 42 43 44 45 46 47 48 49 50

000
ASUS43 KBIS 230502
RWRND

NORTH DAKOTA REGIONAL WEATHER ROUNDUP
NATIONAL WEATHER SERVICE BISMARCK ND
1200 AM CDT THU MAR 23 2017

NOTE: "FAIR" INDICATES FEW OR NO CLOUDS BELOW 12,000 FEET WITH NO
SIGNIFICANT WEATHER AND/OR OBSTRUCTIONS TO VISIBILITY.


NDZ001>003-009>011-017-230600-
NORTHWEST NORTH DAKOTA

CITY           SKY/WX    TMP DP  RH WIND       PRES   REMARKS
WILLISTON      FAIR      32  29  88 CALM      29.78F
MINOT          FAIR      35  29  78 S9        29.82S
MINOT AFB      CLOUDY    32  29  88 S8        29.81S
$$

NDZ018>021-031>035-040>046-230600-
SOUTHWEST NORTH DAKOTA

CITY           SKY/WX    TMP DP  RH WIND       PRES   REMARKS
BISMARCK       FAIR      34  27  75 E7        29.87F
DICKINSON      FAIR      35  30  82 S9        29.76F
GARRISON         N/A     32  28  85 SE5       29.83S
HETTINGER ARPT CLOUDY    34  29  82 E5        29.78F
$$

NDZ004>008-012>016-024-026-027-054-230600-
NORTHEAST NORTH DAKOTA

CITY           SKY/WX    TMP DP  RH WIND       PRES   REMARKS
GRAND FORKS    CLOUDY    35  21  56 S18G25    30.04F
GRND FRKS AFB  CLOUDY    33  25  70 S21G26    30.02F
DEVILS LAKE    FAIR      30  25  81 SE17G23   29.93F WCI  18
$$

NDZ022-023-025-028>030-036>039-047>053-230600-
SOUTHEAST NORTH DAKOTA

CITY           SKY/WX    TMP DP  RH WIND       PRES   REMARKS
FARGO          MOCLDY    36  24  62 S23G36    30.06F
JAMESTOWN      FAIR      30  24  78 SE10      29.94F
$$





USA.gov is the U.S. government's official web portal to all federal, state and local government web resources and services.